[[{"header":{"parameterUnit":"m.s-1","parameterCategory":1,"la1":30.2991,"la2":30.254,"lo1":-89.0895,"lo2":-89.0444,"dy":0.0017,"dx":0.0017,"nx":28,"ny":28,"refTime":"2025-03-19T09:00:00:Z","depth":0,"parameterNumber":2,"parameterNumberName":"U-component_of_WINDS"},"data":[0,0,0,0,0,0,0,0,0,0,0,0,0,0,0,0,0,0,0,0,0,0,0,0,0,0,0,0,0,0,0,0,0,0,0,0,0,0,0,0,0,0,0,0,0,0,0,0,0,0,0,0,0,0,0,0,0,0,0.5534,0.5535,0,0.5603,0.5604,0.5605,0.5626,0.5625,0.5625,0.5625,0.5697,0.57,0.5702,0,0,0,0,0,0,0,0,0,0,0,0,0,0.5423,0.5425,0.5534,0.5535,0.5536,0.5603,0.5604,0.5605,0.5626,0.5625,0.5625,0.5624,0.5697,0.5699,0.5702,0,0,0,0,0,0,0,0,0,0,0,0,0,0.548,0.5426,0.5534,0.5554,0.5557,0.5603,0.5604,0.5605,0.5626,0.5625,0.5625,0.5624,0.5696,0.5699,0.5702,0.5734,0,0,0.5713,0.5714,0,0,0,0,0,0,0,0,0.5476,0.5484,0.555,0.5553,0.5556,0.5605,0.5591,0.5648,0.5626,0.56,0.5625,0.5624,0.5667,0.5673,0.5687,0.5737,0.574,0.5713,0.5715,0.5717,0.5718,0,0,0,0,0,0,0,0.5472,0.5481,0.5561,0.5551,0.5555,0.5561,0.5568,0.5602,0.5636,0.5602,0.5604,0.5611,0.5669,0.5684,0.5689,0.5741,0.5713,0.5716,0.5718,0.5719,0.5822,0.5823,0,0,0,0,0,0,0.5465,0.5477,0.5559,0.5564,0.5514,0.5563,0.5572,0.559,0.5635,0.5642,0.5612,0.5612,0.5678,0.5685,0.5692,0.5733,0.5717,0.572,0.5722,0.5822,0.5823,0.5823,0,0,0,0,0,0,0.5462,0.5472,0.5557,0.5521,0.5532,0.5566,0.5586,0.5592,0.5607,0.5643,0.5649,0.5621,0.5678,0.5687,0.5723,0.5735,0.5721,0.5724,0.5821,0.5822,0.5823,0.5814,0,0,0,0,0,0,0.5459,0.5471,0.5482,0.5521,0.5534,0.5586,0.5587,0.5593,0.5612,0.5613,0.5653,0.5659,0.5678,0.5718,0.5727,0.574,0.5727,0.582,0.5821,0.5823,0.5813,0.5815,0.5816,0,0,0,0,0,0.5455,0.5477,0.5483,0.5493,0.5549,0.5587,0.5594,0.5615,0.5613,0.5626,0.5649,0.5658,0.5732,0.5722,0.5732,0.5746,0.5819,0.5821,0.5823,0.5813,0.5814,0.5816,0,0,0,0,0,0,0.544,0.5483,0.5489,0.5525,0.5552,0.559,0.5607,0.5616,0.5645,0.5645,0.5671,0.568,0.5715,0.5734,0.5721,0.5779,0.5776,0.578,0.5766,0.5767,0.5768,0.5764,0.573,0,0,0,0,0,0.544,0.5466,0.5503,0.5531,0.5544,0.5573,0.559,0.5604,0.5634,0.5645,0.5671,0.57,0.5731,0.575,0.5779,0.5816,0.5826,0.5831,0.5832,0.5833,0.5836,0.5858,0.5861,0.5829,0.5829,0.5829,0,0,0.5442,0.5469,0.5484,0.5528,0.5551,0.5579,0.5582,0.5611,0.5632,0.565,0.5686,0.5706,0.574,0.5777,0.5795,0.5795,0.5847,0.5835,0.5835,0.5838,0.586,0.5863,0.5866,0.583,0.5829,0.5829,0,0,0.546,0.5482,0.5508,0.5531,0.5565,0.5584,0.559,0.5628,0.5642,0.5678,0.5692,0.5718,0.5769,0.5793,0.5812,0.584,0.585,0.5849,0.5855,0.5877,0.5879,0.5882,0.5893,0.5897,0.5852,0.5852,0.5852,0,0.5458,0.5499,0.552,0.5549,0.5569,0.5585,0.5613,0.5634,0.5676,0.569,0.5688,0.5754,0.5778,0.5821,0.5828,0.5842,0.5852,0.5845,0.5877,0.588,0.5882,0.5893,0.5897,0.5851,0.5851,0.5851,0.5851,0,0.5496,0.5524,0.5542,0.5582,0.5603,0.5631,0.5658,0.5677,0.5689,0.5709,0.5747,0.5776,0.5813,0.5824,0.5836,0.587,0.5869,0.5872,0.5869,0.5885,0.5896,0.59,0.5851,0.5851,0.5851,0.5851,0,0,0.5506,0.5558,0.5564,0.5583,0.5622,0.5645,0.5674,0.5709,0.5726,0.5755,0.5781,0.5824,0.5828,0.5849,0.5864,0.5883,0.5905,0.5884,0.5885,0.5888,0.5946,0.5944,0.5948,0.5911,0.5912,0.5913,0.5943,0,0.5529,0.5581,0.5602,0.5644,0.5672,0.5688,0.5714,0.5741,0.5761,0.5788,0.5809,0.584,0.5841,0.5855,0.5874,0.5898,0.5917,0.5896,0.5937,0.5938,0.5929,0.5954,0.5952,0.5979,0.5947,0.5948,0.5949,0,0.5564,0.5593,0.5638,0.5675,0.5688,0.571,0.5745,0.577,0.5802,0.5815,0.5839,0.5853,0.5886,0.588,0.5926,0.5912,0.593,0.5944,0.5946,0.5951,0.5945,0.5962,0.5988,0.5993,0.5955,0.5955,0.5954,0,0.5568,0.5619,0.5653,0.5668,0.5712,0.5728,0.5747,0.5778,0.5798,0.5829,0.5843,0.5876,0.5895,0.5922,0.5945,0.5939,0.599,0.5986,0.6003,0.6002,0.6013,0.6013,0.6045,0.6023,0.6023,0.6022,0.6022,0,0.5593,0.5621,0.5655,0.5676,0.5708,0.5732,0.5763,0.5783,0.5811,0.5837,0.5853,0.5878,0.5907,0.5935,0.5954,0.599,0.5998,0.601,0.6015,0.601,0.6008,0.6023,0.6022,0.6024,0.6023,0.6023,0.6023,0,0.5604,0.5628,0.5667,0.5705,0.5715,0.5737,0.577,0.5792,0.5812,0.5845,0.5854,0.5886,0.5921,0.5946,0.5991,0.6004,0.6043,0.6047,0.6032,0.6035,0.605,0.6049,0.6094,0.6102,0.6073,0.6073,0.6073,0,0.5619,0.564,0.5681,0.5699,0.5718,0.5748,0.5769,0.5793,0.5814,0.5852,0.587,0.5905,0.5935,0.599,0.6018,0.6053,0.6059,0.6072,0.6064,0.6058,0.6061,0.606,0.6063,0.6074,0.6074,0.6074,0.6074,0,0.5643,0.5654,0.5683,0.5717,0.5741,0.5769,0.5797,0.5811,0.5841,0.5864,0.5899,0.5922,0.5968,0.6004,0.6041,0.6062,0.6074,0.6076,0.6082,0.6078,0.6068,0.6075,0.6036,0.6075,0.6075,0.6075,0.6075,0.6075,0.5658,0.5678,0.571,0.5742,0.5766,0.5792,0.5815,0.5837,0.5867,0.5906,0.5918,0.5955,0.5988,0.604,0.6061,0.6091,0.6091,0.61,0.6102,0.6104,0.6104,0.6062,0.6098,0.6098,0.6098,0.6098,0.6098,0,0.5684,0.5706,0.5735,0.5774,0.5799,0.5807,0.5838,0.586,0.5892,0.5921,0.595,0.5991,0.6026,0.6057,0.6094,0.6112,0.6118,0.6121,0.6121,0.6126,0.6101,0.6093,0.6115,0.6115,0.6115,0.6115,0.6115,0.6115,0.5701,0.5737,0.5751,0.5799,0.5821,0.5857,0.5875,0.5899,0.5923,0.5968,0.5997,0.6016,0.6047,0.6086,0.6119,0.6127,0.6141,0.6142,0.6152,0.6129,0.6127,0.6125,0.6118,0.6144,0.6144,0.6174,0.6174,0.6174]},{"header":{"parameterUnit":"m.s-1","parameterCategory":1,"la1":30.2991,"la2":30.254,"lo1":-89.0895,"lo2":-89.0444,"dy":0.0017,"dx":0.0017,"nx":28,"ny":28,"refTime":"2025-03-19T09:00:00:Z","depth":0,"parameterNumber":3,"parameterNumberName":"V-component_of_WINDS"},"data":[0,0,0,0,0,0,0,0,0,0,0,0,0,0,0,0,0,0,0,0,0,0,0,0,0,0,0,0,0,0,0,0,0,0,0,0,0,0,0,0,0,0,0,0,0,0,0,0,0,0,0,0,0,0,0,0,0,0,3.3252,3.3252,0,3.3286,3.3286,3.3287,3.3301,3.3301,3.3301,3.3301,3.3335,3.3336,3.3337,0,0,0,0,0,0,0,0,0,0,0,0,0,3.32,3.3201,3.3252,3.3252,3.3253,3.3286,3.3286,3.3287,3.3301,3.3301,3.3301,3.3301,3.3335,3.3336,3.3337,0,0,0,0,0,0,0,0,0,0,0,0,0,3.3227,3.3201,3.3252,3.3264,3.3265,3.3286,3.3286,3.3287,3.3301,3.3301,3.3301,3.3301,3.3334,3.3336,3.3337,3.3348,0,0,3.3341,3.3342,0,0,0,0,0,0,0,0,3.3226,3.3229,3.3262,3.3263,3.3265,3.3289,3.3281,3.3307,3.3301,3.3287,3.3301,3.3301,3.332,3.3322,3.3329,3.3349,3.3351,3.3342,3.3342,3.3343,3.3343,0,0,0,0,0,0,0,3.3224,3.3228,3.3265,3.3262,3.3264,3.3268,3.3272,3.3286,3.3304,3.3289,3.329,3.3294,3.332,3.3327,3.333,3.3351,3.3341,3.3343,3.3344,3.3344,3.3385,3.3385,0,0,0,0,0,0,3.322,3.3226,3.3264,3.3266,3.3245,3.3269,3.3273,3.3281,3.3304,3.3307,3.3294,3.3294,3.3325,3.3328,3.3331,3.3347,3.3343,3.3344,3.3345,3.3385,3.3385,3.3385,0,0,0,0,0,0,3.3219,3.3223,3.3263,3.3247,3.3252,3.327,3.3279,3.3282,3.3289,3.3307,3.3311,3.3297,3.3325,3.3329,3.3344,3.3348,3.3345,3.3346,3.3384,3.3385,3.3385,3.3377,0,0,0,0,0,0,3.3217,3.3223,3.3227,3.3247,3.3253,3.3275,3.3279,3.3283,3.3292,3.3293,3.3312,3.3315,3.3325,3.3342,3.3346,3.335,3.3347,3.3384,3.3385,3.3385,3.3377,3.3377,3.3377,0,0,0,0,0,3.3215,3.3222,3.3227,3.3231,3.3258,3.3275,3.3279,3.3291,3.3292,3.3296,3.3308,3.3314,3.3347,3.3343,3.3347,3.3352,3.3384,3.3385,3.3385,3.3377,3.3377,3.3377,0,0,0,0,0,0,3.3201,3.3225,3.323,3.3244,3.3258,3.3278,3.3283,3.329,3.3303,3.3304,3.3318,3.3322,3.3337,3.3346,3.3341,3.3365,3.3366,3.3367,3.3359,3.3359,3.3359,3.3356,3.3349,0,0,0,0,0,3.32,3.3212,3.3232,3.3242,3.3249,3.3265,3.3273,3.3281,3.3296,3.3302,3.3315,3.3329,3.3343,3.3351,3.3364,3.3379,3.3384,3.3384,3.3384,3.3384,3.3385,3.3395,3.3396,3.3387,3.3387,3.3387,0,0,3.3197,3.3211,3.3218,3.324,3.3251,3.3264,3.327,3.3282,3.3292,3.3303,3.3319,3.3329,3.3346,3.3361,3.3368,3.3369,3.3389,3.3385,3.3384,3.3386,3.3396,3.3397,3.3398,3.3387,3.3387,3.3387,0,0,3.3198,3.321,3.322,3.3232,3.325,3.3262,3.3264,3.3284,3.3291,3.3307,3.3317,3.3329,3.3351,3.3364,3.3373,3.3381,3.3388,3.3385,3.3385,3.3395,3.3396,3.3397,3.3401,3.3402,3.3386,3.3386,3.3386,0,3.3192,3.3211,3.3225,3.3238,3.3248,3.326,3.3271,3.3282,3.3303,3.331,3.3311,3.3341,3.3353,3.3373,3.3375,3.3381,3.3386,3.3383,3.3395,3.3396,3.3396,3.3401,3.3402,3.3386,3.3386,3.3386,3.3386,0,3.3203,3.3217,3.3223,3.3245,3.3256,3.3267,3.3284,3.3293,3.3301,3.3312,3.3329,3.3344,3.3362,3.3367,3.3375,3.3388,3.3389,3.3392,3.3393,3.3397,3.3401,3.3403,3.3385,3.3386,3.3386,3.3386,0,0,3.3195,3.3226,3.3228,3.3239,3.3261,3.3271,3.3285,3.3303,3.3311,3.3326,3.3338,3.3358,3.3362,3.3373,3.3382,3.339,3.3398,3.3393,3.3394,3.3394,3.3416,3.3414,3.3415,3.3403,3.3403,3.3403,3.3415,0,3.32,3.3224,3.3238,3.3257,3.3271,3.3284,3.3295,3.331,3.3322,3.3335,3.3348,3.3363,3.3366,3.3373,3.3382,3.3395,3.3403,3.3394,3.3415,3.3416,3.3411,3.3417,3.3415,3.3425,3.3417,3.3417,3.3417,0,3.3208,3.3224,3.3245,3.3267,3.3273,3.3284,3.3303,3.3315,3.3333,3.3341,3.3354,3.3363,3.3379,3.3379,3.3402,3.3396,3.3405,3.3414,3.3414,3.3417,3.3417,3.3421,3.3428,3.343,3.342,3.342,3.3419,0,3.3202,3.3228,3.3245,3.3253,3.3279,3.3287,3.3298,3.3316,3.3327,3.3343,3.3351,3.3368,3.3378,3.3392,3.3407,3.3406,3.3429,3.343,3.3437,3.3436,3.3441,3.344,3.345,3.3446,3.3446,3.3446,3.3446,0,3.3206,3.3218,3.3242,3.3252,3.3267,3.3283,3.3298,3.331,3.3326,3.334,3.3352,3.3364,3.3382,3.3397,3.3409,3.3427,3.3431,3.3438,3.3441,3.3438,3.3437,3.3444,3.3444,3.3446,3.3446,3.3446,3.3446,0,3.3201,3.3217,3.3236,3.326,3.3267,3.3277,3.3297,3.3308,3.3321,3.3338,3.3343,3.3363,3.3381,3.3398,3.3421,3.343,3.3448,3.3451,3.3442,3.3444,3.345,3.345,3.3466,3.3469,3.3462,3.3462,3.3462,0,3.3202,3.3212,3.3238,3.3248,3.326,3.3275,3.3287,3.3304,3.3316,3.3338,3.3347,3.3366,3.3383,3.3412,3.3429,3.3448,3.3452,3.3457,3.3455,3.3452,3.3454,3.3453,3.3455,3.3457,3.3457,3.3457,3.3457,0,3.3204,3.3212,3.3228,3.3248,3.3262,3.3278,3.3295,3.3303,3.3323,3.3336,3.3355,3.3368,3.3394,3.3413,3.3435,3.3447,3.3456,3.3457,3.346,3.3456,3.3451,3.3455,3.3443,3.3457,3.3457,3.3457,3.3457,3.3457,3.3203,3.3213,3.3234,3.3252,3.3267,3.3283,3.3295,3.331,3.3326,3.3349,3.3358,3.3378,3.3398,3.3428,3.3441,3.3457,3.3459,3.3462,3.3463,3.3464,3.3464,3.3448,3.3461,3.3461,3.3461,3.3461,3.3461,0,3.3206,3.322,3.3237,3.3261,3.3276,3.3284,3.3303,3.3315,3.3333,3.3351,3.3367,3.3391,3.3411,3.343,3.3451,3.3461,3.3466,3.3466,3.3466,3.3469,3.3461,3.3457,3.3462,3.3462,3.3462,3.3462,3.3462,3.3462,3.3209,3.3228,3.3239,3.3266,3.328,3.3301,3.3311,3.3327,3.3341,3.3367,3.3384,3.3397,3.3416,3.3439,3.3458,3.3464,3.3471,3.3471,3.3477,3.347,3.3469,3.3469,3.3465,3.3472,3.3472,3.3484,3.3484,3.3484]}]]